Date String (YYYY-MM-DD hh:mm:ss) UTC,Instrument flags,Ambient pressure (hPa),Sample flow (lpm),Bypass flow (lpm),Sample temperature (°C),Ambient temperature (°C),ASC tube jacket temperature (°C),LED temperature (°C),Box temperature (°C),Sample RH (%),Span deviation,Mass concentration (μg/m³),Mass concentration (μg/m³),Mass concentration (μg/m³)
DateTimeUTC,F1_M11,P_M11,Q1_M11,Q2_M11,T1_M11,T2_M11,T3_M11,T4_M11,T5_M11,U1_M11,ZSPAN_M11,X0_M11,X2_M11,X1_M11
2021-12-21 23:00:00,,0821.4,5.01,0.00,25.8,24.8,00.0,34.8,27.5,04.4,0000.0,0010.71,0002.25,0000.56
2021-12-21 23:01:00,,0821.1,4.99,0.00,25.8,24.8,00.0,34.7,27.5,04.3,0000.0,0010.17,0002.19,0000.54
2021-12-21 23:02:00,,0821.4,5.00,0.00,25.8,24.8,00.0,34.7,27.5,04.2,0000.0,0010.43,0002.39,0000.57
2021-12-21 23:03:00,,0821.5,5.00,0.00,25.8,24.8,00.0,34.7,27.5,04.2,0000.0,0010.89,0002.60,0000.61
2021-12-21 23:04:00,,0821.4,5.01,0.00,25.8,24.8,00.0,34.7,27.5,04.3,0000.0,0011.55,0002.65,0000.63
2021-12-21 23:05:00,,0821.4,4.98,0.00,25.7,24.7,00.0,34.7,27.5,04.3,0000.0,0011.54,0002.67,0000.64
2021-12-21 23:06:00,,0821.6,5.01,0.00,25.7,24.7,00.0,34.7,27.5,04.3,0000.0,0010.84,0002.69,0000.65
2021-12-21 23:07:00,,0821.6,5.01,0.00,25.7,24.8,00.0,34.7,27.5,04.3,0000.0,0010.68,0002.49,0000.63
2021-12-21 23:08:00,,0821.6,4.99,0.00,25.7,24.8,00.0,34.7,27.5,04.3,0000.0,0009.65,0002.28,0000.63
2021-12-21 23:09:00,,0821.4,5.00,0.00,25.7,24.7,00.0,34.7,27.5,04.2,0000.0,0009.14,0002.04,0000.61
2021-12-21 23:10:00,,0821.6,5.00,0.00,25.7,24.7,00.0,34.7,27.5,04.1,0000.0,0008.95,0001.91,0000.59
2021-12-21 23:11:00,,0821.8,5.00,0.00,25.7,24.7,00.0,34.7,27.5,04.1,0000.0,0008.55,0001.96,0000.60
2021-12-21 23:12:00,,0821.7,5.00,0.00,25.7,24.7,00.0,34.7,27.5,04.2,0000.0,0008.57,0001.96,0000.61
2021-12-21 23:13:00,,0821.8,5.00,0.00,25.7,24.7,00.0,34.7,27.5,04.2,0000.0,0008.60,0001.77,0000.59
2021-12-21 23:14:00,,0821.9,4.99,0.00,25.7,24.7,00.0,34.7,27.5,04.2,0000.0,0008.52,0001.55,0000.56
2021-12-21 23:15:00,,0822.0,5.00,0.00,25.7,24.8,00.0,34.7,27.5,04.2,0000.0,0007.80,0001.48,0000.55
2021-12-21 23:16:00,,0822.1,5.00,0.00,25.7,24.8,00.0,34.6,27.4,04.2,0000.0,0007.76,0001.44,0000.55
2021-12-21 23:17:00,,0822.0,5.01,0.00,25.7,24.8,00.0,34.6,27.4,04.2,0000.0,0007.58,0001.40,0000.54
2021-12-21 23:18:00,,0821.8,5.00,0.00,25.7,24.8,00.0,34.6,27.4,04.2,0000.0,0006.64,0001.41,0000.54
2021-12-21 23:19:00,,0822.0,5.01,0.00,25.6,24.7,00.0,34.6,27.4,04.1,0000.0,0007.43,0001.51,0000.55
2021-12-21 23:20:00,,0822.0,4.99,0.00,25.6,24.7,00.0,34.6,27.3,04.1,0000.0,0007.92,0001.61,0000.56
2021-12-21 23:21:00,,0821.7,5.00,0.00,25.6,24.8,00.0,34.6,27.3,04.1,0000.0,0008.05,0001.59,0000.57
2021-12-21 23:22:00,,0821.8,5.00,0.00,25.6,24.7,00.0,34.6,27.3,04.1,0000.0,0008.44,0001.55,0000.57
2021-12-21 23:23:00,,0821.9,5.01,0.00,25.6,24.7,00.0,34.6,27.3,04.1,0000.0,0008.13,0001.50,0000.57
2021-12-21 23:24:00,,0821.9,5.00,0.00,25.6,24.7,00.0,34.6,27.4,04.1,0000.0,0007.62,0001.45,0000.57
2021-12-21 23:25:00,,0821.8,5.00,0.00,25.6,24.7,00.0,34.6,27.3,04.1,0000.0,0006.67,0001.45,0000.57
2021-12-21 23:26:00,,0821.6,4.99,0.00,25.6,24.6,00.0,34.6,27.3,04.1,0000.0,0006.93,0001.49,0000.58
2021-12-21 23:27:00,,0821.8,5.00,0.00,25.6,24.6,00.0,34.6,27.3,04.1,0000.0,0007.86,0001.50,0000.59
2021-12-21 23:28:00,,0822.0,4.99,0.00,25.6,24.6,00.0,34.6,27.3,04.1,0000.0,0007.85,0001.51,0000.61
2021-12-21 23:29:00,,0822.3,5.01,0.00,25.6,24.6,00.0,34.6,27.3,04.2,0000.0,0007.89,0001.56,0000.63
2021-12-21 23:30:00,,0822.4,4.98,0.00,25.5,24.5,00.0,34.6,27.2,04.2,0000.0,0007.20,0001.57,0000.64
2021-12-21 23:31:00,,0822.1,5.01,0.00,25.5,24.5,00.0,34.5,27.2,04.2,0000.0,0006.43,0001.46,0000.65
2021-12-21 23:32:00,,0822.3,5.01,0.00,25.5,24.5,00.0,34.5,27.2,04.2,0000.0,0006.09,0001.46,0000.67
2021-12-21 23:33:00,,0822.5,5.01,0.00,25.4,24.5,00.0,34.5,27.1,04.2,0000.0,0005.62,0001.56,0000.69
2021-12-21 23:34:00,,0822.4,4.99,0.00,25.4,24.5,00.0,34.5,27.1,04.2,0000.0,0004.99,0001.56,0000.69
2021-12-21 23:35:00,,0822.5,5.00,0.00,25.4,24.5,00.0,34.5,27.0,04.3,0000.0,0005.08,0001.57,0000.71
2021-12-21 23:36:00,,0822.6,5.00,0.00,25.4,24.5,00.0,34.5,27.0,04.3,0000.0,0005.50,0001.53,0000.71
2021-12-21 23:37:00,,0822.3,5.00,0.00,25.4,24.5,00.0,34.5,27.0,04.3,0000.0,0005.67,0001.49,0000.71
2021-12-21 23:38:00,,0822.3,4.99,0.00,25.3,24.5,00.0,34.4,27.0,04.2,0000.0,0004.37,0001.42,0000.70
2021-12-21 23:39:00,,0822.5,5.00,0.00,25.3,24.5,00.0,34.4,27.0,04.2,0000.0,0004.60,0001.35,0000.68
2021-12-21 23:40:00,,0822.5,5.01,0.00,25.3,24.5,00.0,34.4,27.0,04.1,0000.0,0005.02,0001.34,0000.66
2021-12-21 23:41:00,,0822.8,5.01,0.00,25.3,24.5,00.0,34.4,27.0,04.2,0000.0,0005.25,0001.30,0000.63
2021-12-21 23:42:00,,0822.5,4.98,0.00,25.3,24.5,00.0,34.4,27.0,04.1,0000.0,0007.04,0001.34,0000.61
2021-12-21 23:43:00,,0822.1,5.02,0.00,25.3,24.5,00.0,34.4,27.0,04.0,0000.0,0007.27,0001.30,0000.58
2021-12-21 23:44:00,,0822.4,4.99,0.00,25.3,24.5,00.0,34.4,27.1,04.1,0000.0,0007.10,0001.24,0000.56
2021-12-21 23:45:00,,0822.4,5.01,0.00,25.3,24.5,00.0,34.4,27.0,04.2,0000.0,0007.12,0001.26,0000.55
2021-12-21 23:46:00,,0822.4,4.99,0.00,25.3,24.5,00.0,34.3,27.0,04.1,0000.0,0006.95,0001.23,0000.54
2021-12-21 23:47:00,,0822.4,5.01,0.00,25.3,24.5,00.0,34.3,27.0,04.2,0000.0,0006.35,0001.21,0000.52
2021-12-21 23:48:00,,0822.5,4.99,0.00,25.3,24.5,00.0,34.3,27.0,04.1,0000.0,0005.73,0001.19,0000.52
2021-12-21 23:49:00,,0822.4,5.01,0.00,25.3,24.6,00.0,34.3,27.0,04.1,0000.0,0005.72,0001.22,0000.52
2021-12-21 23:50:00,,0822.4,4.99,0.00,25.3,24.6,00.0,34.3,27.0,04.1,0000.0,0005.56,0001.27,0000.52
2021-12-21 23:51:00,,0822.6,5.01,0.00,25.3,24.6,00.0,34.3,27.0,04.1,0000.0,0005.12,0001.23,0000.53
2021-12-21 23:52:00,,0822.8,5.00,0.00,25.3,24.6,00.0,34.3,27.1,04.3,0000.0,0004.96,0001.27,0000.54
2021-12-21 23:53:00,,0823.0,5.00,0.00,25.3,24.6,00.0,34.3,27.0,04.4,0000.0,0003.22,0001.23,0000.55
2021-12-21 23:54:00,,0822.7,5.00,0.00,25.3,24.6,00.0,34.3,27.1,04.3,0000.0,0003.51,0001.23,0000.57
2021-12-21 23:55:00,,0822.6,5.02,0.00,25.4,24.6,00.0,34.3,27.1,04.3,0000.0,0004.60,0001.21,0000.58
2021-12-21 23:56:00,,0822.8,4.98,0.00,25.3,24.6,00.0,34.3,27.1,04.3,0000.0,0004.49,0001.16,0000.58
2021-12-21 23:57:00,,0822.8,5.01,0.00,25.3,24.6,00.0,34.3,27.1,04.2,0000.0,0004.56,0001.17,0000.59
2021-12-21 23:58:00,,0822.8,4.97,0.00,25.3,24.6,00.0,34.3,27.1,04.2,0000.0,0004.59,0001.17,0000.59
2021-12-21 23:59:00,,0822.7,5.01,0.00,25.3,24.6,00.0,34.3,27.1,04.2,0000.0,0004.62,0001.17,0000.60
